Location: Pedholt
(56.0260°N, 10.2097°E)
Time: 03:02:45
(UTC+00:00)

Transit 2A Rocket - Pass Details

Date: 28 July 2021
Orbit: 586 x 917 km, 66.7° (Epoch: 27 September)

Event Time Altitude Azimuth Distance (km) Brightness Sun altitude
Rises 14:59:31 0° 213° (SSW) 2,868 8.6 35.6°
Reaches altitude 10° 15:01:42 10° 211° (SSW) 1,998 8.0 35.3°
Maximum altitude 15:06:10 69° 128° (SE) 713 5.3 34.8°
Drops below altitude 10° 15:11:04 10° 47° (NE) 2,191 7.0 34.1°
Sets 15:13:33 0° 45° (NE) 3,171 7.7 33.8°
